Location: Unspecified
(0.0000°N, 0.0000°E)
Time: 04:06:37
(UTC+00:00)

Explorer 7 - Pass Details

Date: 09 October 2020
Orbit: 484 x 678 km, 50.3° (Epoch: 28 October)

Event Time Altitude Azimuth Distance (km) Brightness Sun altitude
Rises 05:08:07 0° 341° (NNW) 3,012 10.3 -9.7°
Reaches altitude 10° 05:10:44 10° 352° (N) 2,101 9.6 -9.1°
Maximum altitude 05:14:57 29° 53° (NE) 1,214 9.1 -8.0°
Drops below altitude 10° 05:19:07 10° 113° (ESE) 2,069 11.2 -7.0°
Sets 05:21:40 0° 124° (SE) 2,959 11.8 -6.3°
